Year,Month,Day,Hour,Minute,Value (Times are PST for windgust in km/hr)
2020,11,18,00,00,8.10
2020,11,18,00,01,6.40
2020,11,18,00,02,3.20
2020,11,18,00,03,3.20
2020,11,18,00,04,3.20
2020,11,18,00,05,1.60
2020,11,18,00,06,3.20
2020,11,18,00,07,9.60
2020,11,18,00,08,9.60
2020,11,18,00,09,6.40
2020,11,18,00,10,6.40
2020,11,18,00,11,1.60
2020,11,18,00,12,8.10
2020,11,18,00,13,3.20
2020,11,18,00,14,3.20
2020,11,18,00,15,9.60
2020,11,18,00,16,19.30
2020,11,18,00,17,12.90
2020,11,18,00,18,17.70
2020,11,18,00,19,11.30
2020,11,18,00,20,9.60
2020,11,18,00,21,8.10
2020,11,18,00,22,12.90
2020,11,18,00,23,6.40
2020,11,18,00,24,6.40
2020,11,18,00,25,6.40
2020,11,18,00,26,6.40
2020,11,18,00,27,6.40
2020,11,18,00,28,6.40
2020,11,18,00,29,3.20
2020,11,18,00,30,3.20
2020,11,18,00,31,3.20
2020,11,18,00,32,3.20
2020,11,18,00,33,1.60
2020,11,18,00,34,3.20
2020,11,18,00,35,3.20
2020,11,18,00,36,3.20
2020,11,18,00,37,6.40
2020,11,18,00,38,9.60
2020,11,18,00,39,8.10
2020,11,18,00,40,9.60
2020,11,18,00,41,9.60
2020,11,18,00,42,9.60
2020,11,18,00,43,9.60
2020,11,18,00,44,8.10
2020,11,18,00,45,8.10
2020,11,18,00,46,6.40
2020,11,18,00,47,6.40
2020,11,18,00,48,6.40
2020,11,18,00,49,4.80
2020,11,18,00,50,4.80
2020,11,18,00,51,4.80
2020,11,18,00,52,8.10
2020,11,18,00,53,6.40
2020,11,18,00,54,9.60
2020,11,18,00,55,8.10
2020,11,18,00,56,6.40
2020,11,18,00,57,6.40
2020,11,18,00,58,6.40
2020,11,18,00,59,4.80
2020,11,18,01,00,6.40
2020,11,18,01,01,6.40
2020,11,18,01,02,8.10
2020,11,18,01,03,6.40
2020,11,18,01,04,4.80
2020,11,18,01,05,11.30
2020,11,18,01,06,11.30
2020,11,18,01,07,11.30
2020,11,18,01,08,12.90
2020,11,18,01,09,9.60
2020,11,18,01,10,8.10
2020,11,18,01,11,3.20
2020,11,18,01,12,3.20
2020,11,18,01,13,3.20
2020,11,18,01,14,4.80
2020,11,18,01,15,8.10
2020,11,18,01,16,9.60
2020,11,18,01,17,8.10
2020,11,18,01,18,4.80
2020,11,18,01,19,4.80
2020,11,18,01,20,4.80
2020,11,18,01,21,6.40
2020,11,18,01,22,8.10
2020,11,18,01,23,8.10
2020,11,18,01,24,8.10
2020,11,18,01,25,8.10
2020,11,18,01,26,8.10
2020,11,18,01,27,4.80
2020,11,18,01,28,1.60
2020,11,18,01,45,4.80
2020,11,18,01,46,3.20
2020,11,18,01,47,4.80
2020,11,18,01,48,3.20
2020,11,18,01,50,1.60
2020,11,18,01,51,3.20
2020,11,18,01,57,4.80
2020,11,18,01,58,6.40
2020,11,18,01,59,8.10
2020,11,18,02,00,6.40
2020,11,18,02,01,6.40
2020,11,18,02,02,4.80
2020,11,18,02,03,3.20
2020,11,18,02,04,1.60
2020,11,18,02,06,1.60
2020,11,18,02,07,3.20
2020,11,18,02,08,1.60
2020,11,18,02,09,1.60
2020,11,18,02,10,1.60
2020,11,18,02,11,3.20
2020,11,18,02,12,1.60
2020,11,18,02,13,1.60
2020,11,18,02,14,1.60
2020,11,18,02,18,1.60
2020,11,18,02,20,1.60
2020,11,18,02,21,3.20
2020,11,18,02,22,3.20
2020,11,18,02,23,4.80
2020,11,18,02,24,1.60
2020,11,18,02,25,1.60
2020,11,18,02,26,1.60
2020,11,18,02,28,1.60
2020,11,18,02,29,1.60
2020,11,18,02,32,1.60
2020,11,18,02,33,3.20
2020,11,18,02,34,4.80
2020,11,18,02,35,3.20
2020,11,18,02,36,3.20
2020,11,18,02,39,1.60
2020,11,18,02,40,4.80
2020,11,18,02,41,6.40
2020,11,18,02,42,6.40
2020,11,18,02,43,6.40
2020,11,18,02,44,9.60
2020,11,18,02,45,8.10
2020,11,18,02,46,6.40
2020,11,18,02,47,6.40
2020,11,18,02,48,4.80
2020,11,18,02,49,6.40
2020,11,18,02,50,4.80
2020,11,18,02,51,4.80
2020,11,18,02,52,4.80
2020,11,18,02,53,4.80
2020,11,18,02,54,9.60
2020,11,18,02,55,8.10
2020,11,18,02,56,11.30
2020,11,18,02,57,11.30
2020,11,18,02,58,6.40
2020,11,18,02,59,8.10
2020,11,18,03,00,8.10
2020,11,18,03,01,6.40
2020,11,18,03,02,6.40
2020,11,18,03,03,6.40
2020,11,18,03,04,8.10
2020,11,18,03,05,4.80
2020,11,18,03,06,6.40
2020,11,18,03,07,8.10
2020,11,18,03,08,11.30
2020,11,18,03,09,11.30
2020,11,18,03,10,9.60
2020,11,18,03,11,6.40
2020,11,18,03,12,8.10
2020,11,18,03,13,4.80
2020,11,18,03,14,9.60
2020,11,18,03,15,3.20
2020,11,18,03,16,4.80
2020,11,18,03,17,4.80
2020,11,18,03,18,6.40
2020,11,18,03,19,4.80
2020,11,18,03,20,3.20
2020,11,18,03,21,1.60
2020,11,18,03,22,1.60
2020,11,18,03,23,4.80
2020,11,18,03,24,4.80
2020,11,18,03,25,6.40
2020,11,18,03,26,8.10
2020,11,18,03,27,4.80
2020,11,18,03,28,3.20
2020,11,18,03,29,1.60
2020,11,18,03,30,3.20
2020,11,18,03,31,1.60
2020,11,18,03,32,1.60
2020,11,18,09,02,3.20
2020,11,18,09,03,4.80
2020,11,18,09,04,4.80
2020,11,18,09,05,4.80
2020,11,18,09,06,6.40
2020,11,18,09,07,4.80
2020,11,18,09,10,6.40
2020,11,18,09,11,6.40
2020,11,18,09,12,3.20
2020,11,18,09,15,4.80
2020,11,18,09,16,4.80
2020,11,18,09,17,3.20
2020,11,18,09,18,3.20
2020,11,18,09,19,3.20
2020,11,18,09,22,1.60
2020,11,18,09,23,4.80
2020,11,18,09,24,4.80
2020,11,18,09,25,6.40
2020,11,18,09,26,6.40
2020,11,18,09,27,4.80
2020,11,18,09,28,4.80
2020,11,18,09,29,4.80
2020,11,18,09,30,9.60
2020,11,18,09,31,8.10
2020,11,18,09,32,8.10
2020,11,18,09,33,8.10
2020,11,18,09,34,4.80
2020,11,18,09,35,4.80
2020,11,18,09,36,6.40
2020,11,18,09,37,6.40
2020,11,18,09,38,8.10
2020,11,18,09,39,4.80
2020,11,18,09,40,3.20
2020,11,18,09,41,8.10
2020,11,18,09,42,3.20
2020,11,18,09,43,4.80
2020,11,18,09,44,6.40
2020,11,18,09,45,9.60
2020,11,18,09,46,9.60
2020,11,18,09,47,6.40
2020,11,18,09,48,1.60
2020,11,18,09,51,8.10
2020,11,18,09,52,6.40
2020,11,18,09,53,6.40
2020,11,18,09,54,6.40
2020,11,18,09,55,6.40
2020,11,18,09,56,6.40
2020,11,18,09,57,4.80
2020,11,18,09,58,6.40
2020,11,18,09,59,4.80
2020,11,18,10,00,6.40
2020,11,18,10,01,6.40
2020,11,18,10,02,8.10
2020,11,18,10,03,8.10
2020,11,18,10,04,6.40
2020,11,18,10,05,3.20
2020,11,18,10,06,3.20
2020,11,18,10,17,6.40
2020,11,18,10,18,6.40
2020,11,18,10,19,1.60
2020,11,18,10,25,1.60
2020,11,18,10,26,3.20
2020,11,18,10,27,3.20
2020,11,18,10,28,4.80
2020,11,18,10,29,3.20
2020,11,18,10,30,3.20
2020,11,18,10,31,4.80
2020,11,18,10,32,4.80
2020,11,18,10,33,6.40
2020,11,18,10,34,8.10
2020,11,18,10,35,6.40
2020,11,18,10,36,8.10
2020,11,18,10,37,8.10
2020,11,18,10,38,8.10
2020,11,18,10,39,4.80
2020,11,18,10,40,3.20
2020,11,18,10,41,6.40
2020,11,18,10,42,3.20
2020,11,18,10,43,3.20
2020,11,18,10,44,1.60
2020,11,18,10,45,6.40
2020,11,18,10,46,3.20
2020,11,18,10,47,4.80
2020,11,18,10,48,4.80
2020,11,18,10,50,3.20
2020,11,18,10,51,4.80
2020,11,18,10,52,4.80
2020,11,18,10,53,3.20
2020,11,18,10,54,3.20
2020,11,18,10,55,3.20
2020,11,18,10,57,6.40
2020,11,18,10,58,4.80
2020,11,18,10,59,3.20
2020,11,18,11,00,3.20
2020,11,18,11,01,6.40
2020,11,18,11,02,6.40
2020,11,18,11,03,6.40
2020,11,18,11,08,3.20
2020,11,18,11,11,3.20
2020,11,18,11,12,4.80
2020,11,18,11,13,3.20
2020,11,18,11,14,1.60
2020,11,18,11,15,1.60
2020,11,18,11,27,4.80
2020,11,18,11,28,4.80
2020,11,18,11,29,4.80
2020,11,18,11,30,4.80
2020,11,18,11,44,6.40
2020,11,18,11,45,6.40
2020,11,18,11,46,6.40
2020,11,18,11,47,4.80
2020,11,18,11,48,3.20
2020,11,18,11,49,3.20
2020,11,18,11,50,3.20
2020,11,18,11,51,4.80
2020,11,18,11,52,3.20
2020,11,18,11,53,3.20
2020,11,18,11,54,3.20
2020,11,18,11,55,3.20
2020,11,18,11,56,1.60
2020,11,18,11,57,3.20
2020,11,18,11,58,3.20
2020,11,18,11,59,3.20
2020,11,18,12,00,3.20
2020,11,18,12,01,1.60
2020,11,18,12,02,1.60
2020,11,18,12,03,3.20
2020,11,18,12,04,3.20
2020,11,18,12,05,1.60
2020,11,18,20,36,4.80
2020,11,18,20,37,3.20
2020,11,18,20,38,3.20
2020,11,18,20,39,3.20
2020,11,18,20,40,1.60
2020,11,18,21,15,4.80
2020,11,18,21,16,1.60
2020,11,18,21,17,3.20
2020,11,18,21,18,1.60
2020,11,18,21,20,1.60
2020,11,18,21,21,4.80
2020,11,18,21,22,3.20
